Regional Weather Roundup
Issued by NWS

Home | Current Version | Previous Version | Text Only | Print | Product List | Glossary On
Versions: 1 2 3 4 5 6 7 8 9 10 11 12 13 14 15 16 17 18 19 20 21 22 23 24 25 26 27 28 29 30 31 32 33 34 35 36 37 38 39 40 41 42 43 44 45 46 47 48 49 50
000
ASUS45 KABQ 240110
RWRNM
NEW MEXICO REGIONAL WEATHER ROUNDUP
NATIONAL WEATHER SERVICE ALBUQUERQUE NM
700 PM MDT TUE AUG 23 2016

NOTE: "FAIR" MEANS FEW OR NO CLOUDS BELOW 12,000 FEET AGL WITH NO
       SIGNIFICANT WEATHER OR OBSTRUCTIONS TO VISION.

      THIS PRODUCT IS RELEASED AS TWO VERSIONS.  ONE VERSION NEAR
      THE TOP OF THE HOUR CONTAINING PRELIMINARY DATA FROM ALBUQUERQUE
      AND OTHER STATIONS.  A FINAL VERSION WITH ADDITIONAL DATA IS
      ISSUED ABOUT 10 MINUTES AFTER THE HOUR.

NMZ501-503-504-510>518-240200-
NORTHWEST PLATEAU/NORTHCENTRAL MOUNTAINS

CITY           SKY/WX    TMP DP  RH WIND       PRES   REMARKS
FARMINGTON     CLOUDY    63  52  67 N10       30.21R
LOS ALAMOS     FAIR      68  41  36 CALM      30.27F
SANTA FE       FAIR      73  43  33 W9        30.19F
TAOS           CLOUDY    64  45  48 SE13      30.28S
ANGEL FIRE     CLOUDY    56  44  65 CALM      30.35S

$$
NMZ402-403-502-505>509-240200-
WESTCENTRAL MOUNTAINS/SOUTHWEST MOUNTAINS

CITY           SKY/WX    TMP DP  RH WIND       PRES   REMARKS
GALLUP         LGT RAIN  56  52  86 SW6       30.29F
GRANTS         MOCLDY    65  42  43 NW13G22   30.27F
SILVER CITY    FAIR      79  38  23 W15G26    30.16S

$$
NMZ407-409-411-412-240200-
SOUTHERN DESERTS

CITY           SKY/WX    TMP DP  RH WIND       PRES   REMARKS
LORDSBURG      FAIR      86  36  16 W14G23    30.08S
DEMING         FAIR      86  44  23 W10       30.07R
LAS CRUCES     FAIR      87  42  20 W16G23    30.08S
HOLLOMAN AFB   FAIR      87  49  26 W12       30.01S
ALAMOGORDO     FAIR      86  50  28 W13G20    30.04S
T OR C         FAIR      86  36  16 W14       30.07R

$$
NMZ519>523-240200-
CENTRAL VALLEYS/CENTRAL HIGHLANDS

CITY           SKY/WX    TMP DP  RH WIND       PRES   REMARKS
ALBUQUERQUE    MOCLDY    80  39  23 W12       30.13S
DOUBLE EAGLE   MOCLDY    75  43  31 W14       30.17S
MORIARTY ARPT  FAIR      72  41  32 W7        30.20R
CLINES CORNERS FAIR      70  43  37 W12       30.24R
BELEN          MOCLDY    82  36  19 W13       30.12S
SOCORRO        FAIR      80  45  28 N13       30.08R

$$
NMZ524>526-539-540-240200-
SOUTHCENTRAL MOUNTAINS

CITY           SKY/WX    TMP DP  RH WIND       PRES   REMARKS
RUIDOSO          N/A     70  52  52 E5        30.26S

$$
NMZ527>531-240200-
NORTHEAST HIGHLANDS/NORTHEAST PLAINS

CITY           SKY/WX    TMP DP  RH WIND       PRES   REMARKS
LAS VEGAS      FAIR      72  40  31 SW16      30.21R
RATON          MOCLDY    79  40  24 W10       30.09R
CLAYTON        FAIR      81  45  28 S17       30.01S

$$
NMZ532>537-240200-
EASTCENTRAL PLAINS

CITY           SKY/WX    TMP DP  RH WIND       PRES   REMARKS
TUCUMCARI      FAIR      88  51  28 SW18G28   29.97R
CANNON AFB     FAIR      81  60  49 S23G31    30.05R
CLOVIS AIRPORT FAIR      79  59  50 S22G32    30.05S

$$
NMZ028-029-538-240200-
SOUTHEAST PLAINS

CITY           SKY/WX    TMP DP  RH WIND       PRES   REMARKS
ROSWELL        FAIR      74  60  61 SE15      30.06F
ARTESIA        FAIR      73  64  73 S24       30.06R
CARLSBAD       TSTM      67  64  90 S21       30.05F
HOBBS          FAIR      77  63  61 SW13      30.10R


$$




USA.gov is the U.S. government's official web portal to all federal, state and local government web resources and services.